Skip Page Navigation
NASA JPL Caltech
NASA Logo - Jet Propulsion Laboratory + View the NASA Portal
+ Center for Near-Earth Object Studies
JPL Home Earth Solar System Stars & Galaxies Technology
JPL Solar System Dynamics
BODIES ORBITS EPHEMERIDES TOOLS PHYSICAL DATA DISCOVERY FAQ SITE MAP
IMPORTANT: The SSD Announcement email list is now available. Major changes are coming in the near future, including possible hostname and/or URL changes. To be notified of such changes, subscribe to this email list.

Please visit this page for more details.


JPL Small-Body Database Browser
Search: [ help ]  
52622 (1997 VT5)
Classification: Main-belt Asteroid          SPK-ID: 2052622
Ephemeris | Orbit Diagram | Orbital Elements | Mission Design | Physical Parameters | Discovery Circumstances ]

[ show orbit diagram ]
Orbital Elements at Epoch 2458600.5 (2019-Apr-27.0) TDB
Reference: JPL 26 (heliocentric ecliptic J2000)
 Element Value Uncertainty (1-sigma)   Units 
e .1806199946214326 3.2861e-08  
a 2.649602296266099 1.3236e-08 au
q 2.17103114376558 8.7278e-08 au
i 9.993216047128589 5.1398e-06 deg
node 53.40420491830027 2.2551e-05 deg
peri 255.2110696670704 2.7222e-05 deg
M 91.63173316008405 1.5767e-05 deg
tp 2458199.529091642614
(2018-Mar-22.02909164)
6.8451e-05 TDB
period 1575.322456866279
4.31
1.1804e-05
3.232e-08
d
yr
n .2285246416889991 1.7124e-09 deg/d
Q 3.128173448766618 1.5627e-08 au
  Orbit Determination Parameters
   # obs. used (total)      1427  
   data-arc span      9780 days (26.78 yr)  
   first obs. used      1993-01-24  
   last obs. used      2019-11-04  
   planetary ephem.      DE431  
   SB-pert. ephem.      SB431-N16  
   condition code      0  
   norm. resid. RMS      .51124  
   source      ORB  
   producer      Otto Matic  
   solution date      2019-Dec-04 04:13:55  

Additional Information
 Earth MOID = 1.1816 au 
 Jupiter MOID = 2.18792 au 
 T_jup = 3.346 
[ show covariance matrix ]

Ephemeris | Orbit Diagram | Orbital Elements | Mission Design | Physical Parameters | Discovery Circumstances ]

Physical Parameter Table
Parameter Symbol Value Units Sigma Reference Notes
absolute magnitude H 14.5   n/a MPO417183  

52622 (1997 VT5)          Discovered 1997-Nov-08 by Kobayashi, T. at Oizumi
Reference: 20030216/Numbers.arcLast Updated: 2004-04-19

Alternate Designations
 1997 VT5 = 1993 BS15 = 2000 JV36 
Ephemeris | Orbit Diagram | Orbital Elements | Mission Design | Physical Parameters | Discovery Circumstances ]
ABOUT SSD CREDITS/AWARDS PRIVACY/COPYRIGHT GLOSSARY LINKS
FirstGov 2020-Jan-19 13:27 UT
(server date/time)  
NASA Home Page
Site Manager:   Ryan S. Park
Webmaster  Alan B. Chamberlin